GFSNGP_925_rhum_276.txt.gz
RH
52 40 33 36 32 34 32 33 45 36 33 26 32 23 26 26 23 22 22 29 32 39 41 45 49 54 57 63 64 67 62 64 63 54 44 43 44 45 41 40 41 41 44 45
94 36 33 43 35 45 31 29 27 26 27 20 19 21 22 23 22 21 21 22 31 34 39 44 48 52 57 61 65 65 58 57 50 50 44 41 43 44 43 45 46 45 44 44
62 38 33 44 35 30 27 25 27 34 28 22 24 21 20 21 19 20 22 25 27 35 37 42 46 52 55 60 63 61 56 47 42 46 45 41 43 45 43 42 41 44 45 45
72 47 78 38 25 24 26 25 23 23 22 23 23 25 23 23 26 27 24 24 29 30 37 41 47 52 56 57 62 61 49 42 40 43 44 40 42 42 39 38 41 44 44 44
82 62 42 30 28 28 30 29 22 25 23 22 22 25 35 33 36 37 38 37 33 30 37 42 50 54 55 58 58 54 47 42 40 41 42 40 38 40 39 39 40 41 41 42
78 71 59 29 22 22 23 38 20 24 30 26 24 65 47 34 39 42 38 36 34 34 41 44 48 53 56 56 53 49 48 44 41 40 41 40 37 39 40 38 39 39 38 38
84 94 60 27 24 24 47 46 30 28 28 30 36 38 33 30 29 33 40 39 36 37 41 44 48 53 55 53 50 46 47 47 44 42 42 40 37 39 40 39 39 39 38 38
73 88 86 30 28 39 39 34 28 26 29 33 30 30 31 27 28 26 35 36 37 40 42 44 51 53 52 50 48 45 45 48 47 44 44 42 39 41 42 41 39 39 41 45
58 58 39 36 35 34 33 33 32 30 26 30 33 31 29 30 28 25 24 31 30 32 37 43 46 49 48 47 44 45 44 46 48 46 44 39 41 43 42 41 39 40 44 49
50 38 36 34 29 28 27 30 28 27 27 28 32 31 30 30 29 28 24 24 27 29 31 37 41 43 44 43 43 43 44 44 46 47 45 43 36 39 42 41 40 42 47 52
50 39 34 32 30 30 28 27 27 26 26 27 28 27 26 27 28 27 27 26 25 26 30 31 35 39 41 40 41 41 43 44 44 47 46 45 42 39 39 39 43 50 55 58
63 41 44 37 31 29 30 28 25 26 28 25 25 26 25 26 26 25 25 26 28 27 28 28 29 33 37 39 39 42 41 44 44 44 46 46 44 42 41 39 40 44 56 63
39 34 34 34 28 25 27 27 27 26 25 26 26 26 27 29 29 34 32 32 32 33 34 31 30 31 34 36 43 44 41 42 44 44 45 46 44 50 44 39 38 42 43 43
25 27 34 29 31 26 27 26 24 23 24 25 24 25 28 33 33 35 36 35 34 37 39 38 37 36 38 37 41 44 41 42 44 43 45 48 47 53 57 73 81 72 65 66
27 28 30 28 26 26 26 24 25 26 25 26 25 35 37 40 38 37 36 35 35 33 34 37 39 40 40 41 40 42 41 44 43 47 46 51 64 82 59 65 73 76 75 79
26 26 27 28 26 26 22 23 26 28 28 29 33 37 37 36 35 34 33 34 36 42 41 42 41 40 41 41 41 47 46 47 48 52 60 71 94 92 65 68 73 76 76 72
30 30 29 28 25 27 27 27 27 29 33 34 34 34 35 37 39 39 40 47 52 52 50 47 44 50 51 46 44 48 52 54 55 74 71 93 97 71 75 72 71 73 73 73
24 26 25 26 28 30 30 31 31 30 32 34 40 44 49 62 68 68 68 67 65 60 57 62 63 60 58 48 48 52 59 64 76 75 92 88 74 73 92 72 67 69 69 68
23 25 27 26 26 28 30 30 30 32 35 39 56 74 76 76 82 84 83 90 92 94 57 60 62 61 59 51 52 58 66 81 84 83 75 70 76 96 81 66 66 66 66 65
24 24 25 28 29 33 32 30 31 36 45 63 64 63 76 79 99 97 96 97 100 83 78 78 72 66 59 56 56 65 79 81 76 73 78 87 92 95 61 61 66 68 70 74
29 28 30 33 36 38 46 47 50 58 59 69 75 95 99 100 99 99 98 96 87 84 84 84 76 71 70 68 64 74 84 78 79 89 89 96 96 69 77 76 68 66 72 79
32 34 53 48 50 54 54 54 64 70 75 82 86 98 100 100 81 97 86 85 81 85 80 80 76 71 72 73 72 82 95 89 83 85 97 97 83 77 77 80 82 82 83 84
30 33 44 60 69 57 58 62 64 67 75 75 89 95 98 85 80 81 83 81 74 79 79 82 76 68 70 72 76 94 86 84 92 97 94 86 88 88 86 86 85 85 85 84
32 30 33 42 50 57 67 62 61 68 70 68 66 67 70 79 82 84 74 70 71 74 83 77 68 65 68 72 91 88 93 98 97 92 81 89 86 87 88 86 87 86 86 83
33 38 44 54 62 65 59 56 57 63 66 66 64 66 72 75 75 84 78 82 76 88 86 72 64 64 79 99 98 96 98 97 90 84 90 89 89 88 88 90 88 86 86 87
43 48 48 44 48 49 53 56 58 61 62 62 68 74 79 79 78 81 91 86 78 99 98 90 71 71 91 98 99 98 93 92 92 93 89 91 90 90 91 89 89 88 87 87
46 46 50 51 49 48 52 58 64 68 68 66 71 84 86 89 92 95 99 87 96 97 100 100 98 89 99 97 94 93 92 94 92 94 93 92 92 91 90 89 89 91 90 84

GFSNGP_925_rhum_279.txt.gz
RH
65 60 64 58 50 46 55 50 63 51 48 44 49 43 38 37 30 31 38 42 44 51 54 58 61 67 66 63 65 66 67 65 66 65 60 47 44 44 44 42 40 38 42 43
82 56 56 52 55 46 48 46 44 41 43 38 36 36 33 27 24 23 23 24 36 49 53 56 62 66 68 68 67 68 66 66 67 66 56 45 44 45 44 41 40 40 42 44
86 64 63 66 52 44 51 49 35 45 38 36 32 33 31 29 32 32 31 28 28 52 52 54 57 58 64 68 66 66 66 64 65 63 51 43 43 44 44 42 43 44 44 45
84 78 100 56 35 31 35 36 28 29 28 33 36 33 35 40 47 48 45 47 46 40 49 52 54 57 61 64 66 66 63 61 59 54 49 44 41 42 44 44 43 41 44 45
86 86 61 45 36 34 33 36 26 29 32 34 31 52 51 46 47 46 48 46 42 37 44 51 52 56 61 66 66 65 63 57 52 46 47 46 42 42 44 44 40 40 43 44
88 82 80 53 35 28 30 50 32 37 38 35 40 75 64 40 38 42 42 42 40 40 48 53 58 58 60 64 64 65 62 57 47 42 44 45 42 41 42 41 38 40 42 40
95 95 76 42 31 29 47 50 38 39 40 38 50 57 42 32 31 40 38 40 39 43 50 52 54 56 60 63 63 60 59 56 46 42 41 42 42 40 39 40 40 40 40 39
89 93 85 45 32 42 50 37 35 37 36 39 39 34 30 30 29 38 42 39 38 40 47 52 52 55 62 62 57 57 56 53 47 44 41 41 42 40 39 40 40 40 39 39
77 78 51 37 41 49 43 40 31 32 38 37 35 32 31 33 35 31 29 37 36 39 42 48 50 53 58 56 57 57 51 50 49 46 44 43 42 40 41 42 40 40 41 41
58 50 48 42 41 39 36 36 33 31 30 30 30 30 32 36 37 36 31 29 29 37 44 52 48 49 47 51 53 52 50 50 51 49 48 44 50 41 41 43 42 40 39 39
62 42 50 40 37 37 36 34 30 28 27 30 30 31 29 32 33 33 31 28 28 32 37 45 49 53 49 49 49 50 49 49 50 51 50 54 44 41 42 43 42 41 41 41
76 54 58 48 38 34 33 31 31 33 32 29 28 31 30 35 33 36 36 36 36 37 39 37 41 47 47 47 47 47 48 50 49 48 58 52 46 40 41 41 42 50 50 45
54 47 46 41 32 29 33 34 31 31 29 29 30 33 30 37 37 39 38 38 37 37 38 40 39 38 42 43 44 43 45 49 51 55 57 55 52 45 43 46 51 77 46 47
47 47 45 39 39 32 32 30 28 27 29 29 30 39 42 44 41 41 40 36 35 35 35 34 41 41 38 39 40 41 42 44 47 50 57 56 56 55 45 45 62 77 44 48
38 37 40 37 33 31 31 28 32 34 36 37 38 43 41 46 44 40 36 35 36 41 44 46 44 39 41 46 41 41 43 48 49 52 52 49 53 56 64 63 91 97 94 92
34 37 37 37 34 31 32 35 37 36 42 43 42 39 39 39 41 41 41 47 54 58 53 48 43 40 43 45 45 46 48 52 49 49 51 53 56 63 68 93 98 97 97 79
38 38 39 41 42 37 38 38 39 42 40 40 40 44 42 46 47 49 54 58 57 56 55 56 54 53 57 54 53 50 50 51 48 51 58 68 72 70 89 96 97 97 94 75
34 33 36 41 46 44 40 42 36 33 38 38 41 43 52 62 71 71 73 68 57 50 47 52 56 55 61 63 59 53 52 53 57 61 72 81 79 87 96 97 97 96 85 72
30 36 41 39 38 45 44 39 33 33 36 43 52 61 70 71 69 69 85 99 100 100 60 72 78 74 66 65 61 55 56 62 72 77 79 84 96 98 96 97 96 92 73 72
37 39 35 38 35 36 40 34 34 43 64 63 65 64 62 62 90 99 100 100 95 92 87 82 83 81 73 66 65 62 64 69 77 82 85 89 91 97 97 95 92 72 67 67
45 46 48 48 44 36 38 44 42 42 44 63 77 81 85 87 93 97 100 98 78 85 82 78 82 78 72 71 77 74 74 75 78 83 88 88 97 97 97 96 70 67 70 72
49 52 58 53 52 46 41 39 50 57 67 91 97 99 100 97 80 87 85 92 84 85 78 77 78 76 74 72 77 79 76 75 78 82 94 98 97 96 94 80 70 73 73 72
50 51 52 50 49 47 48 53 62 71 78 84 85 86 93 77 76 87 90 80 73 73 75 78 79 72 72 74 82 80 79 80 84 85 91 97 97 95 76 75 78 79 80 83
47 46 45 42 48 59 72 58 61 64 68 70 66 66 68 70 77 81 87 77 72 72 72 76 75 69 68 75 91 86 87 86 89 92 97 96 88 82 80 84 88 89 89 91
42 50 54 59 65 67 59 57 62 67 69 68 66 67 66 66 71 78 83 81 79 75 75 72 68 69 69 74 90 92 92 96 98 97 93 89 86 86 85 86 88 88 86 84
49 55 51 47 53 57 55 56 63 63 69 71 68 66 66 69 72 75 79 86 76 86 86 71 70 74 81 87 93 94 97 97 95 90 86 87 88 89 88 87 88 88 88 86
48 50 57 54 47 45 49 52 60 65 67 66 67 70 73 76 81 83 91 87 88 94 96 96 78 84 89 92 95 98 96 92 90 89 92 92 94 93 89 89 87 85 91 94

GFSNGP_925_rhum_282.txt.gz
RH
60 62 65 64 56 57 54 54 59 57 48 42 45 46 43 36 40 48 49 46 45 47 52 55 58 64 66 69 66 66 72 69 67 65 62 60 55 48 45 43 40 38 38 40
80 65 65 62 58 52 53 54 57 50 50 37 42 44 40 36 33 33 39 48 50 49 55 62 62 66 71 72 70 70 71 69 66 64 62 60 54 47 43 43 42 39 39 40
82 66 64 80 62 55 49 49 50 65 51 35 46 44 38 36 35 38 44 42 34 54 55 61 63 66 73 71 71 71 72 70 66 65 63 62 55 48 44 44 43 41 38 40
90 76 95 60 43 41 48 44 42 32 36 36 39 41 44 42 50 49 46 46 49 51 56 58 66 72 73 72 73 74 73 70 69 68 66 63 54 46 44 45 43 41 40 41
90 92 70 53 49 50 47 41 37 36 39 41 52 54 51 46 46 49 47 49 47 45 46 55 62 66 70 78 76 76 74 72 70 68 67 63 54 46 44 45 44 42 42 41
94 87 92 59 37 32 31 50 33 40 42 50 54 66 65 45 46 46 41 40 42 42 46 54 60 66 74 78 78 77 74 71 68 66 64 61 54 46 44 43 43 44 43 40
96 90 79 51 35 32 50 54 39 40 42 49 51 63 46 42 41 40 36 35 40 41 46 52 60 65 72 76 75 64 71 69 66 63 61 58 52 47 45 43 44 45 42 41
91 89 79 52 33 45 43 44 44 42 45 49 47 48 42 34 33 45 42 39 39 45 46 48 56 62 69 70 56 67 66 66 65 62 58 55 51 48 47 44 45 44 42 43
69 76 53 48 37 43 44 41 39 41 43 46 45 39 38 34 32 36 34 36 37 42 47 50 52 53 62 48 60 61 63 63 64 62 57 50 48 46 51 46 60 47 45 43
62 56 50 48 46 44 42 41 40 42 40 38 39 38 34 37 40 39 35 34 33 37 48 54 54 56 49 46 57 62 61 63 63 61 56 50 48 53 47 58 71 52 48 46
63 52 52 47 46 45 42 39 39 37 36 38 40 36 33 35 36 37 38 38 38 41 42 46 53 54 49 55 58 60 60 60 60 58 54 51 62 64 50 66 67 48 45 42
76 58 54 50 48 45 43 41 42 39 36 33 34 34 35 41 40 42 46 44 42 42 44 45 42 43 51 56 57 58 60 62 61 56 57 61 67 64 69 68 60 44 41 41
56 52 47 52 45 38 43 43 40 39 36 49 50 47 46 53 48 42 41 38 38 39 38 39 40 46 43 49 56 59 58 56 54 62 66 71 70 70 66 64 54 48 47 51
49 53 49 41 41 42 39 38 37 35 36 45 49 47 47 48 44 43 43 42 42 40 40 41 40 40 44 48 58 59 54 52 56 58 66 70 71 68 65 57 58 66 68 65
53 44 46 44 43 43 37 37 40 44 50 55 44 46 43 48 48 47 48 48 48 45 44 48 50 44 41 40 42 50 56 59 58 59 61 68 72 70 65 62 61 62 70 95
46 44 41 40 41 38 39 42 46 52 52 51 49 48 48 48 47 45 48 49 54 61 50 53 50 46 48 47 54 57 48 48 55 61 66 73 73 73 68 68 74 71 84 96
51 54 51 49 42 42 40 45 47 50 53 49 51 46 44 47 47 49 51 57 61 54 54 59 57 59 59 58 59 68 63 58 58 68 72 72 74 76 82 82 88 83 96 98
40 42 47 49 48 51 55 55 51 46 45 43 46 47 52 58 63 63 63 54 52 51 48 60 69 70 71 70 69 68 67 65 66 71 72 75 76 80 89 93 92 90 98 98
40 45 48 45 48 52 54 54 42 39 42 44 48 56 60 64 70 68 73 72 77 78 66 77 73 76 77 74 71 66 70 72 72 75 79 84 86 88 92 84 87 98 98 98
47 48 48 50 44 44 53 39 41 57 63 57 64 70 71 67 82 97 99 97 75 79 84 80 76 75 76 74 70 72 80 78 80 82 84 90 93 90 85 95 99 98 97 97
55 51 54 57 57 45 42 40 45 54 50 54 75 92 82 92 89 95 100 99 68 82 87 77 74 75 75 75 79 80 82 80 83 84 88 88 89 94 98 98 98 97 95 82
55 60 68 62 62 62 50 44 39 54 76 95 99 100 99 87 77 79 77 82 73 77 72 74 73 75 74 74 76 79 79 80 80 84 86 91 98 98 97 97 97 82 74 70
56 58 60 61 59 52 50 45 45 52 64 81 89 84 80 72 76 82 90 74 78 73 71 72 75 72 73 72 74 80 77 76 78 86 97 98 98 98 97 94 81 79 77 78
55 54 54 48 46 53 66 62 54 52 57 66 69 70 72 74 66 67 75 85 79 75 72 71 75 72 71 73 79 80 80 80 79 85 96 98 98 98 93 83 82 84 86 90
54 59 59 62 68 70 56 50 56 63 70 77 77 72 67 66 65 66 73 78 81 78 71 72 69 71 69 72 87 87 86 87 92 96 97 95 90 86 86 86 89 90 91 91
65 71 60 50 52 51 49 60 67 64 71 77 72 68 66 66 66 70 74 76 79 76 80 75 69 73 72 78 79 87 92 94 94 95 94 91 90 88 88 89 90 91 90 88
60 60 65 65 58 57 55 54 61 58 56 64 66 65 68 69 73 77 80 84 85 80 90 88 79 80 86 91 94 97 97 96 93 92 90 90 91 94 95 94 93 90 89 91

GFSNGP_925_rhum_285.txt.gz
RH
56 48 60 54 58 58 59 51 58 44 54 46 43 43 46 49 59 62 62 59 56 55 54 54 59 63 65 66 66 66 69 69 69 70 70 68 62 58 56 52 46 60 36 37
75 67 69 69 62 62 59 54 59 54 56 43 43 41 42 42 51 61 59 55 52 50 51 54 58 63 66 68 70 71 74 78 69 73 70 66 63 61 56 57 53 53 40 38
68 69 74 88 73 62 58 56 56 69 55 42 42 47 46 46 41 40 46 54 57 55 52 53 57 60 66 67 74 75 75 77 75 75 72 68 66 61 54 49 61 45 41 39
70 80 90 50 52 49 50 52 52 49 51 45 40 44 38 41 50 53 51 51 52 56 56 52 56 60 62 71 75 79 80 76 78 76 73 71 66 61 56 51 50 53 42 40
97 86 66 59 56 56 60 53 47 44 46 46 56 50 48 48 48 51 50 54 49 43 45 50 55 61 70 79 82 84 79 79 78 75 75 72 67 63 60 53 54 51 44 42
98 98 94 56 45 42 40 63 44 48 52 54 54 64 60 47 51 51 45 43 44 43 45 48 62 71 77 85 86 84 80 75 76 75 74 72 68 66 64 58 50 46 46 43
92 91 79 57 41 38 69 61 43 46 50 55 46 51 52 52 45 41 39 39 41 43 44 49 58 69 78 82 80 71 78 77 75 73 72 72 71 70 67 61 53 48 47 44
96 92 77 52 42 48 48 44 47 48 56 54 55 53 53 48 44 48 43 43 41 41 41 45 54 62 70 74 51 70 72 74 74 72 74 76 74 70 66 61 54 50 50 53
71 69 53 53 42 39 46 48 47 45 49 49 52 46 47 43 41 42 38 37 40 44 46 49 52 56 64 44 58 67 71 70 73 76 76 73 70 68 66 60 56 57 78 96
65 60 55 53 44 47 43 42 46 43 46 45 48 47 42 44 44 43 38 38 37 40 46 49 52 60 58 62 62 64 68 70 73 74 73 70 67 66 61 66 65 80 97 88
66 60 56 49 47 48 43 44 45 45 43 44 44 46 43 42 43 46 47 46 46 48 49 49 45 45 47 54 61 63 63 66 70 72 72 70 66 62 57 69 57 88 90 79
73 60 58 51 52 47 44 41 39 39 43 40 41 41 43 49 50 52 52 44 43 42 40 40 40 43 44 48 58 63 66 66 66 69 71 68 64 70 73 78 65 81 79 62
53 51 49 51 53 42 40 44 42 41 40 45 41 45 54 62 54 46 44 41 41 42 43 43 41 43 46 46 51 65 68 66 68 71 72 70 81 86 89 81 80 78 73 68
54 53 55 50 48 47 41 43 45 47 50 52 56 53 53 55 48 47 47 46 46 46 48 47 44 42 43 43 44 47 56 68 71 70 70 74 81 82 87 87 82 74 69 65
53 40 43 47 43 42 40 39 46 53 58 61 54 54 49 56 57 56 55 50 47 45 48 48 46 46 49 50 49 49 52 56 59 66 70 72 78 86 87 89 86 84 81 94
54 46 44 45 42 41 40 42 51 59 59 60 60 52 48 49 53 54 57 53 51 59 55 54 53 52 48 49 53 53 55 59 69 67 74 81 88 88 88 86 85 86 97 98
64 58 51 48 44 43 39 41 47 50 60 61 60 55 53 52 54 60 65 59 54 58 58 57 59 59 61 66 70 70 68 67 69 69 70 78 83 86 87 84 84 89 93 89
56 50 43 42 45 48 57 54 54 56 56 53 56 53 54 54 66 67 60 55 52 50 56 64 67 68 70 73 72 71 70 69 71 76 80 85 86 86 86 84 85 91 96 84
48 51 48 44 45 48 54 56 53 50 56 54 53 68 70 73 66 60 60 64 62 60 61 69 74 71 72 71 71 70 69 78 81 81 84 87 88 87 89 89 89 88 88 98
51 53 48 55 51 50 60 54 55 63 58 55 68 75 72 70 76 89 80 78 66 66 75 78 74 69 70 73 73 71 78 83 86 87 88 90 89 89 88 88 90 97 99 98
58 58 56 58 65 55 54 59 67 81 74 53 48 73 78 80 88 98 97 94 66 74 80 75 72 72 74 74 72 73 78 84 88 89 89 90 92 93 93 98 99 98 98 98
57 62 74 70 66 71 58 52 53 66 70 70 73 83 94 91 83 80 74 72 69 75 72 71 71 74 72 73 70 76 79 82 83 85 87 90 95 99 98 98 98 97 90 80
61 62 63 68 68 70 60 54 52 49 65 73 77 83 79 72 72 77 84 68 74 79 74 72 72 73 70 70 72 78 77 78 81 88 96 98 99 99 98 98 94 86 74 74
61 58 65 60 59 62 73 73 62 63 64 74 73 68 65 64 64 61 64 72 81 77 78 70 73 72 70 68 75 78 79 80 79 86 98 99 99 99 93 82 81 83 84 85
61 65 66 63 68 71 60 57 61 70 72 69 66 65 65 66 66 67 67 72 76 76 74 70 69 69 69 67 78 86 86 86 91 96 98 98 91 83 86 86 87 89 90 92
61 66 61 49 55 53 49 55 62 62 61 67 65 64 66 69 70 69 72 74 75 76 72 70 69 68 71 73 81 89 93 96 97 96 94 92 93 92 89 89 90 91 92 91
70 63 63 65 58 50 49 52 57 57 55 54 53 61 67 70 72 72 74 79 80 80 80 85 77 71 73 80 91 96 99 98 97 95 94 93 93 92 94 96 94 93 91 88